Terminal Aerodrome Forecast
Issued by NWS Quad Cities IA IL

Home | Current Version | Previous Version | Text Only | Print | Product List | Glossary On
Versions: 1 2 3 4 5 6 7 8 9 10 11 12 13 14 15 16 17 18 19 20 21 22 23 24 25 26 27 28 29 30 31 32 33 34 35 36 37 38 39 40 41
497
FTUS43 KDVN 221718 AAB
TAFDBQ
TAF AMD
KDBQ 221718Z 2217/2312 20012KT P6SM SCT035 BKN080
      TEMPO 2217/2221 3SM SHRA BKN035
     FM222100 18005KT P6SM SCT120 BKN250
     FM230500 16006KT P6SM VCTS SCT040CB BKN120 PROB30 2306/2312 2SM
      TSRA BKN035CB OVC060=

USA.gov is the U.S. government's official web portal to all federal, state and local government web resources and services.